{"data":{"norad_id":63865,"epoch":"2026-09-20T14:15:49.152960Z","epoch_age_seconds":138893,"freshness":"FRESH","line1":"1 63865U 25094B   26263.59431890  .00024648  00000+0  85770-3 0  9999","line2":"2 63865  69.9987 100.8181 0003613 277.1009  82.9755 15.29629645 76677","mean_motion":15.29629645,"eccentricity":0.0003613,"inclination_deg":69.9987,"raan_deg":100.8181,"arg_perigee_deg":277.1009,"mean_anomaly_deg":82.9755,"bstar":0.0008577,"rev_number":7667,"period_min":94.140434889388,"perigee_km":474.44184420015,"apogee_km":479.39530735921,"semimajor_km":6855.0555757797,"source":"CELESTRAK","updated_at":"2026-09-21T09:00:35.137201Z"}}